EW7004 Weather Reports


Display with metric or nautical units.
time (UTC)temp
F
wind
direction
speed
MPH
gust
MPH
rain 1hr
in
rain 24hr
in
rain mn
in
humidity
%
barometer
mb
20260504150903 56 317 2.0 3.0 0.00 0.00 0.00 68 1033.3
20260504150403 56 285 3.0 8.0 0.00 0.00 0.00 68 1033.3
20260504140903 54 336 2.0 3.0 0.00 0.00 0.00 73 1033.0
20260504140403 54 282 0.0 0.0 0.00 0.00 0.00 73 1033.3
20260504130404 54 298 1.0 3.0 0.00 0.00 0.00 73 1032.8
20260504110403 56 296 3.0 7.0 0.00 0.00 0.00 76 1032.2
20260504100403 56 221 0.0 0.0 0.00 0.00 0.00 74 1031.8
20260504081904 57 209 4.0 7.0 0.00 0.00 0.00 75 1033.3
20260504080904 57 209 2.0 6.0 0.00 0.00 0.00 75 1033.3
20260504080403 57 214 6.0 9.0 0.00 0.00 0.00 74 1033.7
20260504070403 57 167 2.0 5.0 0.00 0.00 0.00 74 1033.1
20260504050404 58 254 3.0 6.0 0.00 0.00 0.00 69 1032.6
20260504045903 58 222 5.0 6.0 0.00 0.00 0.00 69 1032.6
20260504045403 58 203 2.0 6.0 0.00 0.00 0.00 70 1032.7
20260504044904 58 216 5.0 8.0 0.00 0.00 0.00 69 1032.7
20260504044403 58 235 6.0 9.0 0.00 0.00 0.00 69 1032.7
20260504043903 58 230 6.0 9.0 0.00 0.00 0.00 69 1032.6
20260504042403 58 186 3.0 9.0 0.00 0.00 0.00 69 1032.5
20260504041904 58 195 3.0 7.0 0.00 0.00 0.00 69 1032.4
20260504041403 59 198 4.0 8.0 0.00 0.00 0.00 69 1032.4
20260504040903 59 202 5.0 12.0 0.00 0.00 0.00 68 1032.6
20260504040404 59 219 7.0 10.0 0.00 0.00 0.00 68 1032.6
20260504035903 59 228 8.0 12.0 0.00 0.00 0.00 68 1032.5
20260504035403 59 216 9.0 13.0 0.00 0.00 0.00 67 1032.4
20260504034903 60 218 7.0 12.0 0.00 0.00 0.00 66 1032.3
20260504034403 60 210 6.0 12.0 0.00 0.00 0.00 65 1032.2
20260504033903 60 219 6.0 9.0 0.00 0.00 0.00 65 1032.2
20260504033404 60 214 4.0 7.0 0.00 0.00 0.00 64 1032.1
20260504032903 60 207 3.0 5.0 0.00 0.00 0.00 64 1032.0
20260504032403 60 201 6.0 9.0 0.00 0.00 0.00 64 1032.0
20260504031903 60 217 5.0 10.0 0.00 0.00 0.00 64 1031.9
20260504031403 60 180 5.0 12.0 0.00 0.00 0.00 64 1031.7
20260504030903 60 207 5.0 10.0 0.00 0.00 0.00 64 1031.5
20260504030404 60 214 7.0 13.0 0.00 0.00 0.00 63 1031.5
20260504025903 61 203 5.0 10.0 0.00 0.00 0.00 63 1031.3
20260504025403 61 209 5.0 12.0 0.00 0.00 0.00 63 1031.3
20260504024903 61 197 7.0 16.0 0.00 0.00 0.00 63 1031.1
20260504024403 61 214 8.0 17.0 0.00 0.00 0.00 63 1031.3
20260504023903 61 211 10.0 18.0 0.00 0.00 0.00 62 1031.1
20260504023403 61 219 10.0 17.0 0.00 0.00 0.00 62 1031.0
20260504022903 62 222 13.0 18.0 0.00 0.00 0.00 62 1030.9
20260504022403 62 212 10.0 20.0 0.00 0.00 0.00 61 1030.7
20260504021903 62 222 12.0 18.0 0.00 0.00 0.00 61 1030.5
20260504021403 63 226 13.0 20.0 0.00 0.00 0.00 60 1030.4
20260504020903 63 220 10.0 17.0 0.00 0.00 0.00 60 1030.3
20260504020403 64 207 12.0 18.0 0.00 0.00 0.00 59 1030.1
20260504015403 64 214 11.0 18.0 0.00 0.00 0.00 58 1029.8
20260504014904 64 209 9.0 18.0 0.00 0.00 0.00 57 1029.6
20260504014404 65 221 13.0 18.0 0.00 0.00 0.00 56 1029.7
20260504013903 65 222 12.0 18.0 0.00 0.00 0.00 56 1029.8
20260504013403 65 206 9.0 20.0 0.00 0.00 0.00 56 1029.6
20260504012903 66 218 13.0 17.0 0.00 0.00 0.00 55 1029.7
20260504012404 66 211 11.0 18.0 0.00 0.00 0.00 55 1029.6
20260504011903 67 215 11.0 16.0 0.00 0.00 0.00 54 1029.5
20260504011404 67 213 9.0 18.0 0.00 0.00 0.00 53 1029.4
20260504010904 67 217 10.0 15.0 0.00 0.00 0.00 52 1029.4
20260504010403 68 228 12.0 20.0 0.00 0.00 0.00 52 1029.4
20260504005903 68 215 10.0 17.0 0.00 0.00 0.00 52 1029.3
20260504005403 69 208 6.0 13.0 0.00 0.00 0.00 52 1029.3
20260504004904 69 213 9.0 18.0 0.00 0.00 0.00 51 1029.2
20260504004403 69 227 7.0 15.0 0.00 0.00 0.00 51 1029.4
20260504003403 69 177 6.0 14.0 0.00 0.00 0.00 52 1029.2
20260504002903 69 230 9.0 13.0 0.00 0.00 0.00 50 1029.0
20260504001903 70 199 7.0 10.0 0.00 0.00 0.00 51 1028.8
20260504001403 70 189 6.0 10.0 0.00 0.00 0.00 50 1028.8
20260504000905 70 181 7.0 12.0 0.00 0.00 0.00 51 1028.8
20260504000403 70 218 6.0 12.0 0.00 0.00 0.00 50 1028.9
20260503235904 70 245 7.0 12.0 0.00 0.00 0.00 50 1028.8
20260503235403 71 232 4.0 10.0 0.00 0.00 0.00 51 1028.8
20260503234903 71 165 5.0 10.0 0.00 0.00 0.00 52 1029.0
20260503234403 71 206 3.0 12.0 0.00 0.00 0.00 53 1029.2
20260503233903 70 196 2.0 10.0 0.00 0.00 0.00 53 1029.2
20260503233405 70 163 3.0 7.0 0.00 0.00 0.00 53 1029.2
20260503232903 70 216 8.0 12.0 0.00 0.00 0.00 52 1029.2
20260503232403 70 232 3.0 6.0 0.00 0.00 0.00 52 1029.2
20260503231404 70 225 6.0 10.0 0.00 0.00 0.00 52 1029.4
20260503230903 70 196 2.0 12.0 0.00 0.00 0.00 52 1029.5
20260503230403 70 206 7.0 13.0 0.00 0.00 0.00 53 1029.5
20260503225903 70 177 4.0 8.0 0.00 0.00 0.00 54 1029.5
20260503224903 70 183 4.0 10.0 0.00 0.00 0.00 54 1029.6
20260503223903 70 158 5.0 10.0 0.00 0.00 0.00 53 1029.8
20260503223403 70 194 4.0 9.0 0.00 0.00 0.00 55 1029.9
20260503222404 70 197 3.0 7.0 0.00 0.00 0.00 56 1029.9
20260503221903 69 189 3.0 12.0 0.00 0.00 0.00 58 1029.9
20260503221403 69 201 5.0 12.0 0.00 0.00 0.00 57 1030.0
20260503220903 69 198 1.0 9.0 0.00 0.00 0.00 57 1030.1
20260503220403 69 206 6.0 10.0 0.00 0.00 0.00 59 1030.1
20260503215903 68 183 6.0 12.0 0.00 0.00 0.00 58 1030.2
20260503214904 67 208 6.0 12.0 0.00 0.00 0.00 60 1030.4
20260503214403 67 189 3.0 10.0 0.00 0.00 0.00 62 1030.4
20260503213903 67 172 5.0 12.0 0.00 0.00 0.00 62 1030.4
20260503213404 66 213 5.0 12.0 0.00 0.00 0.00 62 1030.4
20260503212903 66 213 5.0 10.0 0.00 0.00 0.00 64 1030.5
20260503211904 66 203 3.0 10.0 0.00 0.00 0.00 65 1030.5
20260503211403 66 189 4.0 9.0 0.00 0.00 0.00 65 1030.5
20260503210404 65 203 6.0 9.0 0.00 0.00 0.00 65 1030.5
20260503205904 65 209 7.0 12.0 0.00 0.00 0.00 66 1030.6
20260503205403 65 222 6.0 10.0 0.00 0.00 0.00 67 1030.6
20260503204403 64 192 6.0 12.0 0.00 0.00 0.00 67 1030.6
20260503203904 64 224 6.0 9.0 0.00 0.00 0.00 68 1030.7
20260503203403 64 209 6.0 10.0 0.00 0.00 0.00 69 1030.7
20260503202903 64 221 6.0 9.0 0.00 0.00 0.00 69 1030.8
20260503202404 64 206 7.0 13.0 0.00 0.00 0.00 69 1030.7
20260503200903 64 219 5.0 12.0 0.00 0.00 0.00 70 1030.7
20260503200404 63 233 5.0 12.0 0.00 0.00 0.00 70 1030.7
20260503195904 63 221 7.0 12.0 0.00 0.00 0.00 70 1030.7
20260503195403 63 226 5.0 12.0 0.00 0.00 0.00 70 1030.8
20260503193903 63 258 7.0 12.0 0.00 0.00 0.00 71 1031.0
20260503193404 63 223 8.0 12.0 0.00 0.00 0.00 70 1031.1
20260503192903 63 213 6.0 9.0 0.00 0.00 0.00 70 1031.2
20260503192403 63 236 6.0 10.0 0.00 0.00 0.00 71 1031.2
20260503191903 63 224 5.0 10.0 0.00 0.00 0.00 72 1031.2
20260503191403 63 226 6.0 9.0 0.00 0.00 0.00 72 1031.2
20260503190903 62 220 5.0 12.0 0.00 0.00 0.00 73 1031.3
20260503190404 62 215 6.0 9.0 0.00 0.00 0.00 74 1031.3
20260503185903 62 215 6.0 9.0 0.00 0.00 0.00 75 1031.5
20260503185403 62 216 6.0 9.0 0.00 0.00 0.00 76 1031.5
20260503184404 61 226 6.0 10.0 0.00 0.00 0.00 77 1031.5
20260503183904 61 254 6.0 9.0 0.00 0.00 0.00 76 1031.5
20260503183403 61 217 5.0 9.0 0.00 0.00 0.00 76 1031.5
20260503182904 61 223 8.0 9.0 0.00 0.00 0.00 76 1031.5
20260503181404 61 228 7.0 13.0 0.00 0.00 0.00 78 1031.4
20260503180904 61 230 8.0 12.0 0.00 0.00 0.00 78 1031.5
20260503180403 61 223 7.0 12.0 0.00 0.00 0.00 78 1031.4
20260503175904 61 229 5.0 10.0 0.00 0.00 0.00 79 1031.4
20260503174904 61 211 7.0 12.0 0.00 0.00 0.00 79 1031.3
20260503174403 61 208 7.0 12.0 0.00 0.00 0.00 79 1031.3
20260503173904 61 217 5.0 9.0 0.00 0.00 0.00 80 1031.3
20260503173404 61 227 6.0 9.0 0.00 0.00 0.00 81 1031.3
20260503172903 61 210 5.0 10.0 0.00 0.00 0.00 82 1031.2
20260503172404 60 220 8.0 12.0 0.00 0.00 0.00 82 1031.1
20260503171903 60 217 6.0 9.0 0.00 0.00 0.00 83 1031.1
20260503171404 60 212 6.0 9.0 0.00 0.00 0.00 84 1031.1
20260503170904 60 218 3.0 10.0 0.00 0.00 0.00 86 1031.1
20260503170404 59 211 5.0 7.0 0.00 0.00 0.00 87 1031.1